Total_Precipitation_Accumulation
0.00 0.00 0.01 0.01 0.03 0.03 0.04 0.05 0.08 0.09 0.08 0.08 0.11 0.15 0.14 0.09 0.07 0.06 0.06 0.07 0.09 0.12 0.12 0.12 0.12 0.12 0.10 0.08 0.05 0.03 0.01 0.01 0.01 0.01 0.02 0.02 0.02 0.03 0.05 0.06 0.10 0.17 0.04
0.00 0.00 0.01 0.01 0.02 0.03 0.04 0.05 0.06 0.06 0.06 0.07 0.09 0.11 0.11 0.09 0.08 0.07 0.06 0.06 0.08 0.11 0.11 0.10 0.08 0.10 0.09 0.05 0.03 0.01 0.00 0.00 0.00 0.00 0.01 0.03 0.05 0.03 0.05 0.06 0.12 0.31 0.13
0.00 0.00 0.00 0.02 0.02 0.02 0.03 0.05 0.05 0.05 0.06 0.08 0.08 0.09 0.09 0.08 0.07 0.07 0.07 0.10 0.13 0.16 0.15 0.13 0.12 0.12 0.11 0.07 0.04 0.01 0.00 0.00 0.00 0.02 0.11 0.18 0.24 0.08 0.06 0.05 0.05 0.11 0.14
0.00 0.00 0.01 0.02 0.02 0.02 0.02 0.04 0.07 0.07 0.06 0.07 0.07 0.07 0.07 0.07 0.06 0.06 0.07 0.10 0.15 0.19 0.20 0.18 0.16 0.13 0.10 0.06 0.03 0.02 0.01 0.00 0.01 0.06 0.20 0.28 0.33 0.18 0.12 0.12 0.12 0.10 0.15
0.00 0.00 0.01 0.01 0.02 0.03 0.02 0.03 0.06 0.07 0.06 0.06 0.07 0.07 0.06 0.06 0.06 0.06 0.07 0.08 0.10 0.14 0.14 0.10 0.09 0.09 0.09 0.05 0.02 0.01 0.01 0.00 0.02 0.10 0.28 0.47 0.44 0.27 0.14 0.15 0.17 0.18 0.19
0.00 0.00 0.00 0.01 0.03 0.04 0.04 0.05 0.06 0.06 0.07 0.07 0.08 0.09 0.09 0.08 0.07 0.08 0.10 0.11 0.11 0.12 0.11 0.08 0.08 0.07 0.08 0.04 0.01 0.02 0.01 0.01 0.06 0.19 0.38 0.53 0.33 0.21 0.19 0.21 0.22 0.24 0.22
0.01 0.01 0.00 0.01 0.04 0.06 0.07 0.09 0.11 0.11 0.11 0.11 0.12 0.13 0.12 0.11 0.10 0.10 0.11 0.12 0.12 0.13 0.12 0.10 0.12 0.11 0.07 0.02 0.01 0.01 0.01 0.02 0.08 0.39 0.50 0.48 0.34 0.22 0.20 0.19 0.17 0.18 0.18
0.02 0.01 0.00 0.01 0.03 0.08 0.12 0.15 0.17 0.14 0.12 0.11 0.12 0.14 0.12 0.09 0.07 0.07 0.07 0.09 0.11 0.14 0.15 0.10 0.06 0.05 0.02 0.01 0.01 0.01 0.02 0.03 0.06 0.28 0.39 0.30 0.21 0.12 0.09 0.07 0.08 0.08 0.08
0.01 0.01 0.00 0.00 0.03 0.09 0.15 0.15 0.14 0.11 0.10 0.09 0.12 0.16 0.14 0.09 0.06 0.05 0.08 0.09 0.10 0.10 0.08 0.03 0.01 0.01 0.00 0.00 0.00 0.01 0.01 0.02 0.05 0.09 0.09 0.07 0.06 0.03 0.02 0.02 0.02 0.02 0.02
0.00 0.00 0.00 0.02 0.05 0.09 0.10 0.09 0.09 0.07 0.06 0.07 0.11 0.12 0.10 0.07 0.06 0.06 0.06 0.06 0.06 0.08 0.07 0.04 0.01 0.01 0.00 0.00 0.00 0.00 0.00 0.01 0.02 0.04 0.06 0.05 0.02 0.01 0.01 0.01 0.01 0.01 0.01
0.00 0.00 0.00 0.00 0.02 0.04 0.04 0.02 0.02 0.03 0.02 0.02 0.04 0.05 0.05 0.08 0.12 0.12 0.07 0.06 0.08 0.09 0.07 0.02 0.01 0.00 0.00 0.00 0.00 0.00 0.00 0.00 0.01 0.04 0.10 0.12 0.04 0.01 0.01 0.01 0.01 0.01 0.01
0.00 0.00 0.00 0.00 0.00 0.03 0.03 0.02 0.02 0.02 0.03 0.03 0.05 0.03 0.05 0.16 0.24 0.18 0.15 0.09 0.08 0.06 0.02 0.01 0.00 0.00 0.00 0.00 0.00 0.00 0.00 0.00 0.01 0.04 0.06 0.03 0.01 0.01 0.01 0.02 0.01 0.01 0.01
0.00 0.00 0.01 0.01 0.02 0.12 0.13 0.03 0.04 0.03 0.04 0.03 0.05 0.05 0.11 0.17 0.14 0.12 0.14 0.07 0.04 0.02 0.02 0.02 0.00 0.00 0.00 0.00 0.00 0.00 0.00 0.00 0.00 0.01 0.02 0.01 0.01 0.02 0.02 0.03 0.02 0.01 0.01
0.01 0.00 0.01 0.01 0.03 0.08 0.11 0.03 0.03 0.02 0.03 0.04 0.05 0.05 0.12 0.16 0.14 0.16 0.20 0.12 0.08 0.06 0.06 0.03 0.01 0.00 0.00 0.00 0.00 0.00 0.00 0.00 0.00 0.00 0.00 0.01 0.02 0.03 0.04 0.05 0.04 0.04 0.04
0.01 0.00 0.00 0.00 0.02 0.02 0.01 0.02 0.02 0.01 0.01 0.02 0.04 0.06 0.09 0.14 0.16 0.19 0.22 0.22 0.11 0.09 0.09 0.06 0.02 0.02 0.02 0.00 0.00 0.00 0.00 0.00 0.00 0.00 0.00 0.02 0.04 0.05 0.07 0.08 0.08 0.08 0.09
0.01 0.01 0.00 0.00 0.00 0.01 0.01 0.01 0.01 0.01 0.02 0.02 0.04 0.05 0.05 0.11 0.23 0.24 0.23 0.19 0.11 0.09 0.10 0.10 0.05 0.01 0.01 0.00 0.00 0.00 0.00 0.00 0.00 0.00 0.01 0.04 0.06 0.05 0.07 0.08 0.08 0.09 0.10
0.01 0.01 0.01 0.00 0.00 0.00 0.00 0.01 0.02 0.04 0.04 0.04 0.05 0.06 0.06 0.09 0.18 0.21 0.22 0.20 0.15 0.11 0.08 0.06 0.05 0.03 0.01 0.01 0.01 0.02 0.02 0.02 0.02 0.02 0.02 0.02 0.05 0.07 0.07 0.07 0.07 0.07 0.08
0.02 0.01 0.01 0.01 0.01 0.00 0.01 0.03 0.06 0.08 0.07 0.07 0.09 0.11 0.12 0.13 0.17 0.21 0.22 0.22 0.20 0.17 0.15 0.13 0.11 0.10 0.09 0.08 0.09 0.09 0.07 0.06 0.05 0.05 0.04 0.03 0.04 0.05 0.08 0.07 0.06 0.06 0.06
0.04 0.03 0.03 0.01 0.01 0.02 0.03 0.05 0.09 0.11 0.13 0.14 0.16 0.19 0.22 0.25 0.27 0.29 0.30 0.31 0.30 0.30 0.28 0.24 0.22 0.21 0.19 0.16 0.13 0.10 0.08 0.09 0.06 0.03 0.02 0.02 0.02 0.03 0.03 0.04 0.06 0.06 0.05
0.05 0.05 0.03 0.01 0.02 0.04 0.06 0.08 0.11 0.16 0.21 0.26 0.30 0.38 0.44 0.47 0.48 0.48 0.48 0.47 0.47 0.42 0.37 0.32 0.29 0.24 0.19 0.16 0.11 0.07 0.04 0.04 0.03 0.02 0.02 0.02 0.01 0.01 0.01 0.00 0.01 0.02 0.03
0.09 0.05 0.04 0.05 0.08 0.12 0.18 0.20 0.27 0.43 0.54 0.65 0.77 0.89 0.88 0.84 0.81 0.76 0.68 0.63 0.57 0.46 0.37 0.31 0.26 0.22 0.18 0.13 0.10 0.07 0.03 0.02 0.01 0.01 0.01 0.00 0.00 0.00 0.00 0.00 0.00 0.00 0.00
0.08 0.07 0.09 0.13 0.23 0.34 0.51 0.67 0.88 1.08 1.15 1.24 1.30 1.30 1.24 1.20 1.14 1.08 1.01 0.90 0.73 0.58 0.48 0.37 0.30 0.25 0.20 0.15 0.11 0.07 0.04 0.02 0.01 0.00 0.00 0.00 0.00 0.00 0.00 0.00 0.00 0.00 0.00
0.13 0.15 0.15 0.24 0.50 0.76 0.93 1.11 1.38 1.59 1.61 1.64 1.64 1.59 1.49 1.43 1.33 1.23 1.17 1.06 0.91 0.74 0.61 0.48 0.37 0.28 0.20 0.12 0.06 0.04 0.02 0.01 0.00 0.00 0.00 0.00 0.00 0.00 0.00 0.00 0.00 0.00 0.00
0.21 0.25 0.29 0.47 0.86 1.13 1.28 1.54 1.82 2.01 2.17 2.23 2.06 1.81 1.53 1.33 1.17 1.04 0.94 0.84 0.75 0.63 0.48 0.34 0.24 0.17 0.10 0.05 0.03 0.02 0.01 0.01 0.01 0.01 0.00 0.00 0.00 0.00 0.00 0.00 0.00 0.00 0.00
0.31 0.38 0.49 0.71 1.03 1.34 1.63 1.93 2.06 2.21 2.26 2.14 1.83 1.46 1.21 1.06 0.94 0.83 0.71 0.58 0.45 0.33 0.23 0.16 0.11 0.08 0.06 0.04 0.02 0.01 0.01 0.01 0.01 0.01 0.01 0.00 0.00 0.00 0.00 0.00 0.00 0.00 0.00
0.43 0.50 0.59 0.74 0.99 1.31 1.58 1.77 1.77 1.83 1.75 1.50 1.29 1.16 1.01 0.84 0.67 0.51 0.37 0.26 0.18 0.13 0.09 0.07 0.05 0.04 0.02 0.01 0.00 0.00 0.00 0.00 0.00 0.00 0.00 0.00 0.00 0.00 0.00 0.00 0.00 0.00 0.00